Stations météo

Publicité
Kinlochewe, Grande-Bretagne (99092): Température de l'air & dewpoint: 10.02.2019 17:00:00 - 16.02.2019 17:00:00 (GMT)Kinlochewe, Grande-Bretagne (99092): Température de l'air -20cm: 10.02.2019 17:00:00 - 16.02.2019 17:00:00 (GMT)Kinlochewe, Grande-Bretagne (99092): Quantités de précipitations: 10.02.2019 17:00:00 - 16.02.2019 17:00:00 (GMT)
Date & Time tt [°C] td [°C] tt -20cm [°C] rr [mm]
16.02.2019 17:00:00 9,1 4,0 - 0,0
16.02.2019 16:00:00 10,4 4,9 - 0,0
16.02.2019 15:00:00 10,8 5,3 - 0,0
16.02.2019 14:00:00 9,6 5,6 - 0,0
16.02.2019 13:00:00 9,1 6,2 - 0,2
16.02.2019 12:00:00 8,8 7,0 - 0,6
16.02.2019 11:00:00 9,1 7,9 - 0,6
16.02.2019 10:00:00 9,2 8,0 - 0,4
16.02.2019 09:00:00 9,3 8,2 5,7 0,2
16.02.2019 08:00:00 9,3 8,1 - 0,0
16.02.2019 07:00:00 8,4 7,6 - 0,0
16.02.2019 06:00:00 9,3 7,9 - 0,2
16.02.2019 05:00:00 9,6 7,7 - 0,0
16.02.2019 04:00:00 9,6 7,8 - 0,6
16.02.2019 03:00:00 9,8 7,9 - 0,4
16.02.2019 02:00:00 8,3 7,6 - 0,0
16.02.2019 01:00:00 7,7 7,1 - 0,2
16.02.2019 00:00:00 8,0 7,4 - 1,2
15.02.2019 23:00:00 9,4 8,2 - 8,0
15.02.2019 22:00:00 9,3 8,9 - 4,6
15.02.2019 21:00:00 9,5 8,9 - 1,2
15.02.2019 20:00:00 9,6 8,9 - 2,2
15.02.2019 19:00:00 11,1 8,5 - 0,6
15.02.2019 18:00:00 11,3 7,5 - 0,2
15.02.2019 17:00:00 11,8 6,1 - 0,0
15.02.2019 16:00:00 12,0 5,8 - 0,0
15.02.2019 15:00:00 11,9 5,4 - 0,0
15.02.2019 14:00:00 12,9 4,1 - 0,0
15.02.2019 13:00:00 13,5 3,8 - 0,0
15.02.2019 12:00:00 13,6 3,8 - 0,0
15.02.2019 11:00:00 14,5 3,6 - 0,0
15.02.2019 10:00:00 13,5 2,7 - 0,0
15.02.2019 09:00:00 11,7 -0,6 5,5 0,0
15.02.2019 08:00:00 10,5 -2,7 - 0,0
15.02.2019 07:00:00 9,9 -2,0 - 0,0
15.02.2019 06:00:00 9,9 -0,7 - 0,0
15.02.2019 05:00:00 8,1 0,7 - 0,0
15.02.2019 04:00:00 9,2 0,1 - 0,0
15.02.2019 03:00:00 7,4 -0,1 - 0,0
15.02.2019 02:00:00 7,1 1,2 - 0,0
15.02.2019 01:00:00 7,0 1,1 - 0,0
15.02.2019 00:00:00 5,3 2,0 - 0,0
14.02.2019 23:00:00 6,7 2,8 - 0,0
14.02.2019 22:00:00 7,4 3,7 - 0,0
14.02.2019 21:00:00 7,4 3,7 - 0,0
14.02.2019 20:00:00 9,6 4,8 - 0,0
14.02.2019 19:00:00 8,1 4,5 - 0,0
14.02.2019 18:00:00 9,2 5,5 - 0,0
14.02.2019 17:00:00 10,3 6,0 - 0,0
14.02.2019 16:00:00 11,9 8,2 - 0,0
14.02.2019 15:00:00 11,6 9,0 - 0,0
14.02.2019 14:00:00 11,5 8,8 - 0,0
14.02.2019 13:00:00 10,8 9,3 - 0,0
14.02.2019 12:00:00 10,3 9,1 - 0,0
14.02.2019 11:00:00 10,7 8,6 - 0,0
14.02.2019 10:00:00 10,5 8,6 - 0,0
14.02.2019 09:00:00 10,5 8,6 5,2 0,0
14.02.2019 08:00:00 10,4 8,6 - 0,4
14.02.2019 07:00:00 10,1 8,6 - 0,4
14.02.2019 06:00:00 10,2 8,8 - 1,0
14.02.2019 05:00:00 10,6 8,5 - 0,0
14.02.2019 04:00:00 11,0 8,1 - 0,2
14.02.2019 03:00:00 10,8 8,3 - 0,0
14.02.2019 02:00:00 11,0 8,2 - 0,0
14.02.2019 01:00:00 10,8 8,2 - 0,0
14.02.2019 00:00:00 11,2 7,7 - 0,0
13.02.2019 23:00:00 10,8 8,0 - 0,0
13.02.2019 22:00:00 10,7 7,9 - 0,0
13.02.2019 21:00:00 10,9 7,7 - 0,0
13.02.2019 20:00:00 11,4 7,4 - 0,0
13.02.2019 19:00:00 12,3 7,4 - 0,0
13.02.2019 18:00:00 11,9 7,3 - 0,0
13.02.2019 17:00:00 11,7 7,2 - 0,0
13.02.2019 16:00:00 11,6 7,2 - 0,0
13.02.2019 15:00:00 11,6 7,2 - 0,0
13.02.2019 14:00:00 11,9 7,7 - 0,0
13.02.2019 13:00:00 11,5 7,9 - 0,0
13.02.2019 12:00:00 11,7 7,7 - 0,0
13.02.2019 11:00:00 11,9 7,7 - 0,0
13.02.2019 10:00:00 11,3 7,9 - 0,0
13.02.2019 09:00:00 11,2 8,0 4,7 0,0
13.02.2019 08:00:00 10,6 8,2 - 0,2
13.02.2019 07:00:00 10,9 8,6 - 0,0
13.02.2019 06:00:00 11,0 9,8 - 0,8
13.02.2019 05:00:00 7,1 6,5 - 2,4
13.02.2019 04:00:00 6,4 4,4 - 0,2
13.02.2019 03:00:00 5,1 2,4 - 0,0
13.02.2019 02:00:00 5,1 1,9 - 0,0
13.02.2019 01:00:00 8,7 4,0 - 0,0
13.02.2019 00:00:00 8,4 5,1 - 0,0
12.02.2019 23:00:00 8,5 4,5 - 0,0
12.02.2019 22:00:00 9,6 3,8 - 0,0
12.02.2019 21:00:00 9,9 3,5 - 0,0
12.02.2019 20:00:00 10,1 3,9 - 0,0
12.02.2019 19:00:00 10,1 5,0 - 0,0
12.02.2019 18:00:00 10,8 3,2 - 0,0
12.02.2019 17:00:00 10,8 4,6 - 0,0
12.02.2019 16:00:00 10,8 5,5 - 0,0
12.02.2019 15:00:00 11,9 5,4 - 0,0
12.02.2019 14:00:00 11,4 8,5 - 0,0
12.02.2019 13:00:00 10,7 9,5 - 1,2
12.02.2019 12:00:00 10,2 9,0 - 1,8
12.02.2019 11:00:00 10,1 8,5 - 2,0
12.02.2019 10:00:00 10,0 8,2 - 0,6
12.02.2019 09:00:00 10,3 7,9 4,2 0,2
12.02.2019 08:00:00 10,4 7,5 - 0,0
12.02.2019 07:00:00 9,2 7,4 - 0,0
12.02.2019 06:00:00 8,8 7,2 - 0,2
12.02.2019 05:00:00 8,7 6,8 - 0,2
12.02.2019 04:00:00 8,9 6,6 - 0,0
12.02.2019 03:00:00 9,5 5,6 - 0,0
12.02.2019 02:00:00 9,1 5,5 - 0,0
12.02.2019 01:00:00 8,7 5,7 - 0,0
12.02.2019 00:00:00 8,5 6,5 - 0,0
11.02.2019 23:00:00 6,9 5,8 - 0,4
11.02.2019 22:00:00 7,4 5,7 - 0,4
11.02.2019 21:00:00 6,5 4,9 - 0,4
11.02.2019 20:00:00 6,0 3,7 - 0,2
11.02.2019 19:00:00 5,7 2,8 - 0,2
11.02.2019 18:00:00 5,6 1,2 - 0,0
11.02.2019 17:00:00 5,3 0,9 - 0,0
11.02.2019 16:00:00 5,8 0,5 - 0,0
11.02.2019 15:00:00 5,9 0,1 - 0,0
11.02.2019 14:00:00 5,8 1,4 - 0,0
11.02.2019 13:00:00 5,8 0,5 - 0,0
11.02.2019 12:00:00 4,8 1,4 - 0,0
11.02.2019 11:00:00 2,7 0,9 - 0,0
11.02.2019 10:00:00 0,2 -0,5 - 0,0
11.02.2019 09:00:00 -1,1 -1,4 4,0 0,0
11.02.2019 08:00:00 -1,4 -1,6 - 0,0
11.02.2019 07:00:00 -1,3 -1,5 - 0,0
11.02.2019 06:00:00 -1,2 -1,5 - 0,0
11.02.2019 05:00:00 0,0 -0,3 - 0,0
11.02.2019 04:00:00 0,3 0,0 - 0,0
11.02.2019 03:00:00 1,3 0,8 - 0,0
11.02.2019 02:00:00 2,2 1,6 - 0,0
11.02.2019 01:00:00 3,4 2,1 - 0,0
11.02.2019 00:00:00 3,6 2,2 - 0,2
10.02.2019 23:00:00 4,3 3,3 - 0,0
10.02.2019 22:00:00 4,6 3,5 - 0,0
10.02.2019 21:00:00 4,9 3,8 - 0,0
10.02.2019 20:00:00 5,0 4,5 - 0,0
10.02.2019 19:00:00 4,2 3,8 - 0,2
10.02.2019 18:00:00 4,3 3,6 - 0,6
10.02.2019 17:00:00 5,9 0,1 - 0,0

tt = Température de l'air
td = dewpoint
tt -20cm = Température de l'air -20cm
rr = Quantités de précipitations

stations d'obs. à proximité